Weather History for Tullahoma, TN

Change the Weather History Date:

Wednesday, December 25, 2013

  Actual Average Record
Temperature  
Mean Temperature 30 °F -  
Max Temperature 46 °F 44 °F 50 °F (2012)
Min Temperature 15 °F 26 °F 15 °F (2013)
Degree Days  
Heating Degree Days 34    
Moisture  
Dew Point 18 °F    
Average Humidity 62    
Maximum Humidity 86    
Minimum Humidity 34    
Precipitation  
Precipitation 0.00 in - - ()
Sea Level Pressure  
Sea Level Pressure 30.35 in    
Wind  
Wind Speed 2 mph (South)    
Max Wind Speed 9 mph    
Max Gust Speed -    
Visibility 10 miles    
Events      
Averages and records for this station are not official NWS values.
T = Trace of Precipitation, MM = Missing Value Source: NWS Daily Summary

Daily Weather History Graph

Daily Weather History Graph

Search for Another Location

Airport:

Trip Planner

Search our weather history database for the weather conditions in past years. The results will help you decide how hot, cold, wet, or windy it might be!

Date:

Astronomy

Dec. 25, 2013 Rise Set
Actual Time 6:52 AM CST 4:38 PM CST
Civil Twilight 6:23 AM CST 5:06 PM CST
Nautical Twilight 5:51 AM CST 5:38 PM CST
Astronomical Twilight 5:20 AM CST 6:09 PM CST
Moon No Moon Rise 11:31 AM CST (12/25)
Length of Visible Light 10h 43m
Length of Day
9h 46m
Waning Gibbous, 48% of the Moon is Illuminated
Dec 25
Waning Gibbous
Jan 1
New
Jan 7
First Quarter
Jan 15
Full
Jan 23
Last Quarter

Hourly Weather History & Observations

Time (CST) Temp. Windchill Dew Point Humidity Pressure Visibility Wind Dir Wind Speed Gust Speed Precip Events Conditions
12:35 AM 21.2 °F - 12.2 °F 68% 30.38 in 10.0 mi Calm Calm - N/A   Clear
12:55 AM 21.2 °F - 12.2 °F 68% 30.38 in 10.0 mi Calm Calm - N/A   Clear
1:15 AM 21.2 °F - 12.2 °F 68% 30.38 in 10.0 mi Calm Calm - N/A   Clear
1:35 AM 21.2 °F - 12.2 °F 68% 30.37 in 10.0 mi Calm Calm - N/A   Clear
1:55 AM 21.2 °F - 12.2 °F 68% 30.37 in 10.0 mi Calm Calm - N/A   Clear
2:15 AM 19.4 °F - 12.2 °F 74% 30.38 in 10.0 mi Calm Calm - N/A   Clear
2:35 AM 19.4 °F - 12.2 °F 74% 30.38 in 10.0 mi Calm Calm - N/A   Clear
2:55 AM 19.4 °F - 12.2 °F 74% 30.38 in 10.0 mi Calm Calm - N/A   Clear
3:15 AM 17.6 °F - 12.2 °F 79% 30.39 in 10.0 mi Calm Calm - N/A   Clear
3:35 AM 17.6 °F - 12.2 °F 79% 30.39 in 10.0 mi Calm Calm - N/A   Clear
3:55 AM 17.6 °F - 12.2 °F 79% 30.39 in 10.0 mi Calm Calm - N/A   Clear
4:15 AM 17.6 °F - 14.0 °F 86% 30.39 in 10.0 mi Calm Calm - N/A   Clear
4:35 AM 15.8 °F - 12.2 °F 86% 30.38 in 10.0 mi Calm Calm - N/A   Clear
4:55 AM 17.6 °F - 14.0 °F 86% 30.39 in 10.0 mi Calm Calm - N/A   Clear
5:15 AM 19.4 °F 14.3 °F 14.0 °F 80% 30.39 in 10.0 mi SE 3.5 mph - N/A   Clear
5:35 AM 17.6 °F - 12.2 °F 79% 30.39 in 10.0 mi Calm Calm - N/A   Clear
5:55 AM 17.6 °F - 12.2 °F 79% 30.40 in 10.0 mi Calm Calm - N/A   Clear
6:15 AM 17.6 °F 10.7 °F 12.2 °F 79% 30.39 in 10.0 mi South 4.6 mph - N/A   Clear
6:35 AM 19.4 °F 11.5 °F 14.0 °F 80% 30.39 in 10.0 mi SSE 5.8 mph - N/A   Clear
6:55 AM 21.2 °F 14.9 °F 14.0 °F 74% 30.40 in 10.0 mi South 4.6 mph - N/A   Clear
7:15 AM 21.2 °F 14.9 °F 15.8 °F 80% 30.39 in 10.0 mi SSE 4.6 mph - N/A   Clear
7:35 AM 21.2 °F 16.4 °F 15.8 °F 80% 30.40 in 10.0 mi South 3.5 mph - N/A   Clear
7:55 AM 26.6 °F - 17.6 °F 69% 30.41 in 10.0 mi Calm Calm - N/A   Clear
8:15 AM 26.6 °F - 19.4 °F 74% 30.41 in 10.0 mi Calm Calm - N/A   Clear
8:35 AM 28.4 °F - 19.4 °F 69% 30.41 in 10.0 mi Calm Calm - N/A   Clear
8:55 AM 30.2 °F - 19.4 °F 64% 30.42 in 10.0 mi Calm Calm - N/A   Clear
9:15 AM 30.2 °F - 19.4 °F 64% 30.42 in 10.0 mi Calm Calm - N/A   Clear
9:35 AM 33.8 °F - 19.4 °F 56% 30.42 in 10.0 mi Calm Calm - N/A   Clear
9:55 AM 33.8 °F - 19.4 °F 56% 30.42 in 10.0 mi Calm Calm - N/A   Clear
10:15 AM 35.6 °F 31.7 °F 19.4 °F 52% 30.41 in 10.0 mi SSW 4.6 mph - N/A   Clear
10:35 AM 35.6 °F 30.7 °F 19.4 °F 52% 30.41 in 10.0 mi South 5.8 mph - N/A   Clear
10:55 AM 37.4 °F 33.8 °F 21.2 °F 52% 30.40 in 10.0 mi South 4.6 mph - N/A   Clear
11:15 AM 39.2 °F 34.2 °F 21.2 °F 49% 30.39 in 10.0 mi South 6.9 mph - N/A   Clear
11:35 AM 39.2 °F 33.6 °F 21.2 °F 49% 30.38 in 10.0 mi South 8.1 mph - N/A   Clear
11:55 AM 42.8 °F 37.5 °F 19.4 °F 39% 30.36 in 10.0 mi SW 9.2 mph - N/A   Clear
12:15 PM 42.8 °F 38.0 °F 19.4 °F 39% 30.35 in 10.0 mi SW 8.1 mph - N/A   Clear
12:35 PM 44.6 °F 41.4 °F 19.4 °F 37% 30.34 in 10.0 mi Variable 5.8 mph - N/A   Clear
12:55 PM 44.6 °F 41.4 °F 19.4 °F 37% 30.33 in 10.0 mi SSW 5.8 mph - N/A   Clear
1:15 PM 44.6 °F 41.4 °F 19.4 °F 37% 30.32 in 10.0 mi SSW 5.8 mph - N/A   Clear
1:35 PM 44.6 °F - 19.4 °F 37% 30.31 in 10.0 mi Calm Calm - N/A   Clear
1:55 PM 44.6 °F - 19.4 °F 37% 30.31 in 10.0 mi Calm Calm - N/A   Clear
2:15 PM 44.6 °F 41.4 °F 19.4 °F 37% 30.31 in 10.0 mi South 5.8 mph - N/A   Clear
2:35 PM 44.6 °F 42.2 °F 19.4 °F 37% 30.31 in 10.0 mi South 4.6 mph - N/A   Clear
2:55 PM 46.4 °F 44.3 °F 19.4 °F 34% 30.31 in 10.0 mi Variable 4.6 mph - N/A   Clear
3:15 PM 44.6 °F - 19.4 °F 37% 30.31 in 10.0 mi Calm Calm - N/A   Clear
3:35 PM 44.6 °F - 21.2 °F 39% 30.31 in 10.0 mi Calm Calm - N/A   Clear
3:55 PM 42.8 °F 40.1 °F 21.2 °F 42% 30.31 in 10.0 mi SSW 4.6 mph - N/A   Clear
4:15 PM 41.0 °F 38.0 °F 21.2 °F 45% 30.31 in 10.0 mi South 4.6 mph - N/A   Clear
4:35 PM 39.2 °F 35.0 °F 19.4 °F 45% 30.31 in 10.0 mi SSW 5.8 mph - N/A   Clear
4:55 PM 37.4 °F 33.8 °F 19.4 °F 48% 30.31 in 10.0 mi South 4.6 mph - N/A   Clear
5:15 PM 39.2 °F 37.0 °F 19.4 °F 45% 30.30 in 10.0 mi SSW 3.5 mph - N/A   Clear
5:35 PM 33.8 °F 30.8 °F 21.2 °F 60% 30.31 in 10.0 mi WNW 3.5 mph - N/A   Clear
5:55 PM 35.6 °F 30.7 °F 19.4 °F 52% 30.30 in 10.0 mi South 5.8 mph - N/A   Clear
6:15 PM 35.6 °F 32.8 °F 21.2 °F 56% 30.30 in 10.0 mi SSW 3.5 mph - N/A   Clear
6:35 PM 33.8 °F 30.8 °F 21.2 °F 60% 30.30 in 10.0 mi SSW 3.5 mph - N/A   Clear
6:55 PM 32.0 °F - 21.2 °F 64% 30.30 in 10.0 mi Calm Calm - N/A   Clear
7:15 PM 30.2 °F - 21.2 °F 69% 30.30 in 10.0 mi Calm Calm - N/A   Clear
7:35 PM 30.2 °F - 21.2 °F 69% 30.32 in 10.0 mi Calm Calm - N/A   Clear
7:55 PM 28.4 °F - 21.2 °F 74% 30.31 in 10.0 mi Calm Calm - N/A   Clear
8:15 PM 28.4 °F - 21.2 °F 74% 30.32 in 10.0 mi Calm Calm - N/A   Clear
8:35 PM 28.4 °F - 21.2 °F 74% 30.32 in 10.0 mi Calm Calm - N/A   Clear
8:55 PM 28.4 °F - 21.2 °F 74% 30.32 in 10.0 mi Calm Calm - N/A   Clear
9:15 PM 28.4 °F - 21.2 °F 74% 30.31 in 10.0 mi Calm Calm - N/A   Clear
9:35 PM 26.6 °F - 21.2 °F 80% 30.32 in 10.0 mi Calm Calm - N/A   Clear
9:55 PM 26.6 °F - 21.2 °F 80% 30.32 in 10.0 mi Calm Calm - N/A   Clear
10:15 PM 30.2 °F 25.4 °F 21.2 °F 69% 30.31 in 10.0 mi South 4.6 mph - N/A   Clear
10:35 PM 30.2 °F - 21.2 °F 69% 30.31 in 10.0 mi Calm Calm - N/A   Clear
10:55 PM 30.2 °F 25.4 °F 21.2 °F 69% 30.31 in 10.0 mi South 4.6 mph - N/A   Partly Cloudy
11:15 PM 32.0 °F 25.6 °F 21.2 °F 64% 30.31 in 10.0 mi South 6.9 mph - N/A   Partly Cloudy
11:35 PM 32.0 °F - 21.2 °F 64% 30.31 in 10.0 mi Calm Calm - N/A   Partly Cloudy
11:55 PM 30.2 °F 26.7 °F 23.0 °F 75% 30.32 in 10.0 mi WSW 3.5 mph - N/A   Mostly Cloudy